Regional Weather Roundup
Issued by NWS

Current Version | Previous Version | Text Only | Print | Product List | Glossary On
Versions: 1 2 3 4 5 6 7 8 9 10 11 12 13 14 15 16 17 18 19 20 21 22 23 24 25 26 27 28 29 30 31 32 33 34 35 36 37 38 39 40 41 42 43 44 45 46 47 48 49 50
000
ASUS43 KOAX 292010
RWRNE

WEATHER ROUNDUP FOR NEBRASKA
NATIONAL WEATHER SERVICE OMAHA NE
300 PM CDT WED JUL 29 2015

NOTES: SATELLITE DATA IS BEING USED TO AUGMENT CLOUD COVER ABOVE
       12000 FEET.
       "FAIR" INDICATES FEW OR NO CLOUDS BELOW 12,000 FEET WITH NO
       SIGNIFICANT WEATHER AND/OR OBSTRUCTIONS TO VISIBILITY.

  * THESE STATIONS DO NOT REPORT WEATHER SUCH AS RAIN...SNOW OR FOG.

NEZ001>004-019>022-054>056-292100-
NEBRASKA PANHANDLE

CITY           SKY/WX    TMP DP  RH WIND       PRES   REMARKS
SCOTTSBLUFF    SUNNY     83  48  29 S10       30.24F
ALLIANCE       SUNNY     82  47  29 S13G18    30.26F
CHADRON        SUNNY     81  46  29 MISG      30.23F
KIMBALL        SUNNY     81  47  30 S18       30.29F
SIDNEY         SUNNY     82  47  29 S21G28    30.30F
$$

NEZ057>060-069>072-079>082-292100-
SOUTHWEST NEBRASKA

CITY           SKY/WX    TMP DP  RH WIND       PRES   REMARKS
NORTH PLATTE   SUNNY     81  52  36 SE7       30.25F
IMPERIAL       SUNNY     82  46  28 S10G22    30.28F
LEXINGTON      PTSUNNY   80  49  33 SW5       30.26S
MCCOOK         MOSUNNY   80  54  40 VRB3      30.27F
OGALLALA       SUNNY     81  48  31 SE12      30.27F
$$

NEZ005>010-023>029-035>040-094-292100-
NORTH CENTRAL NEBRASKA

CITY           SKY/WX    TMP DP  RH WIND       PRES   REMARKS
VALENTINE      SUNNY     86  39  19 SW10G20   30.20F
AINSWORTH      SUNNY     83  41  22 W14       30.23F
BROKEN BOW     MOSUNNY   83  50  31 W7        30.24F
O`NEILL        SUNNY     84  46  26 W12G17    30.20F
ORD            SUNNY     83  47  28 SW9       30.20F
THEDFORD       SUNNY     82  48  31 S7        30.26F
$$

NEZ041-046>049-061>064-073>077-083>087-292100-
SOUTH CENTRAL NEBRASKA

CITY           SKY/WX    TMP DP  RH WIND       PRES   REMARKS
GRAND ISLAND   PTSUNNY   79  51  37 E5        30.23S
AURORA         CLOUDY    78  58  49 NW3       30.22S
HASTINGS       CLOUDY    79  50  36 N7        30.23S
HEBRON         CLOUDY    83  49  30 N7        30.20R
HOLDREGE       CLOUDY    76  51  41 SE3       30.26R
KEARNEY *      CLOUDY    77  52  41 SE6       30.24F
YORK           PTSUNNY   77  55  47 N5        30.21S
$$

NEZ011>018-030>034-042>045-292100-
NORTHEAST NEBRASKA

CITY           SKY/WX    TMP DP  RH WIND       PRES   REMARKS
NORFOLK        SUNNY     85  49  28 W12       30.17F
ALBION         SUNNY     85  42  22 W5        30.19F
BLAIR          MOSUNNY   81  51  35 NW8       30.17S
COLUMBUS *     SUNNY     82  52  34 NW5       30.18F
FREMONT        SUNNY     83  54  36 W9        30.17F
TEKAMAH        SUNNY     84  57  39 NW10      30.15F
WAYNE          SUNNY     83  54  36 NW10G17   30.17S
$$

NEZ050>053-065>068-078-088>093-292100-
SOUTHEAST NEBRASKA

CITY           SKY/WX    TMP DP  RH WIND       PRES   REMARKS
LINCOLN        MOSUNNY   84  50  30 N9        30.18S
OMAHA EPPLEY   MOSUNNY   85  54  34 NW8       30.15F
BEATRICE       PTSUNNY   83  55  37 N9        30.17R
FALLS CITY     PTSUNNY   82  61  48 NE7       30.14F
NEBRASKA CITY  MOSUNNY   81  52  36 N7        30.16F
PLATTSMOUTH    SUNNY     84  46  26 NW8       30.16F
$$

NEZ044-045-051>053-067-292100-
OMAHA AREA

CITY           SKY/WX    TMP DP  RH WIND       PRES   REMARKS
OMAHA EPPLEY   MOSUNNY   85  54  34 NW8       30.15F
BLAIR          MOSUNNY   81  51  35 NW8       30.17S
FREMONT        SUNNY     83  54  36 W9        30.17F
MILLARD        SUNNY     84  49  28 NW12      30.15F
OFFUTT AFB     SUNNY     85  50  29 NW10      30.14F
PLATTSMOUTH    SUNNY     84  46  26 NW8       30.16F
WAHOO          FAIR      82  56  41 NW6       30.17S
$$


USA.gov is the U.S. government's official web portal to all federal, state and local government web resources and services.